Location: Hokitika
(42.7170°S, 170.9670°E)
Time: 21:18:21
(UTC+12:00)

ISS - Pass Details

Date: 23 May 2021
Orbit: 417 x 422 km, 51.6° (Epoch: 21 June)

Event Time Altitude Azimuth Distance (km) Brightness Sun altitude
Exits shadow 06:29:00 - 318° (NW) 1,631 -1.0 -14.5°
Reaches altitude 10° 06:29:16 10° 318° (NW) 1,520 -1.2 -14.4°
Maximum altitude 06:32:38 58° 38° (NE) 505 -3.1 -13.8°
Drops below altitude 10° 06:36:02 10° 117° (ESE) 1,534 -0.2 -13.2°
Sets 06:38:10 0° 121° (ESE) 2,405 0.8 -12.8°
